Regional Weather Roundup
Issued by NWS

Home | Current Version | Previous Version | Graphics & Text | Print | Product List | Glossary On
Versions: 1 2 3 4 5 6 7 8 9 10 11 12 13 14 15 16 17 18 19 20 21 22 23 24 25 26 27 28 29 30 31 32 33 34 35 36 37 38 39 40 41 42 43 44 45 46 47 48 49 50
217
ASUS45 KBOI 212310
RWRID

IDAHO REGIONAL WEATHER ROUNDUP
NATIONAL WEATHER SERVICE BOISE ID
400 PM MST WED FEB 21 2018

NOTE: "FAIR" INDICATES FEW OR NO CLOUDS BELOW 12000 FEET
WITH NO SIGNIFICANT WEATHER AND/OR OBSTRUCTIONS TO VISIBILITY

IDZ012-014-220000-
SOUTHWEST IDAHO


CITY           SKY/WX    TMP DP  RH WIND       PRES   REMARKS
BOISE          CLOUDY    35  12  38 CALM      30.11F
CALDWELL       FAIR      33  18  53 NW3       30.15F
MOUNTAIN HOME  MOSUNNY   37  10  32 W3        30.09F
$$

IDZ016-017-220000-
SOUTHCENTRAL IDAHO


CITY           SKY/WX    TMP DP  RH WIND       PRES   REMARKS
BURLEY         FAIR      30   7  37 VRB5      30.07F WCI  25
JEROME         FAIR      33   4  29 VRB5      30.08F WCI  29
TWIN FALLS     FAIR      26  12  55 E10       30.08F WCI  16
$$

IDZ019>023-220000-
SOUTHEAST IDAHO


CITY           SKY/WX    TMP DP  RH WIND       PRES   REMARKS
IDAHO FALLS    FAIR      27   7  42 S9G18     30.07F WCI  18
POCATELLO      FAIR      30  14  51 N5        30.09F WCI  25
REXBURG        PTSUNNY   27   5  39 S14       30.05F WCI  16
$$

IDZ006-010-011-018-031-032-220000-
CENTRAL IDAHO MOUNTAINS


CITY           SKY/WX    TMP DP  RH WIND       PRES   REMARKS
MCCALL         CLOUDY    17  11  77 S3        29.99F
HAILEY         PTSUNNY   25   7  46 SE7       30.03F WCI  17
STANLEY          N/A     17   8  67 N6        29.94F WCI   9
SALMON         PTSUNNY   25  12  58 CALM      30.05F
CHALLIS        FAIR      27   6  41 CALM      29.97F
$$

IDZ002-004-006-007-026-220000-
NORTHERN IDAHO


CITY           SKY/WX    TMP DP  RH WIND       PRES   REMARKS
LEWISTON       FAIR      32  16  51 CALM      30.20F
LOWELL           N/A     32  17  54 S3        30.19F
COEUR D`ALENE  FAIR      24   9  52 W5        30.17F WCI  18
MULLAN PASS    PTSUNNY    8   4  83 VRB5      29.90S WCI   0
$$




USA.gov is the U.S. government's official web portal to all federal, state and local government web resources and services.